CW0364 Weather Reports


time (UTC)temp
C
wind
direction
speed
KPH
gust
KPH
rain 1hr
cm
rain 24hr
cm
rain mn
cm
humidity
%
barometer
mb
20260510072003 16 47 0.0 1.6 0.00 0.00 0.00 87 1013.3
20260510071003 16 95 0.0 1.6 0.00 0.00 0.00 85 1013.2
20260510070003 17 96 0.0 1.6 0.00 0.00 0.00 84 1013.3
20260510065003 17 98 0.0 1.6 0.00 0.00 0.00 83 1013.4
20260510064003 17 103 0.0 1.6 0.00 0.00 0.00 82 1013.4
20260510063003 17 120 1.6 3.2 0.00 0.00 0.00 80 1013.4
20260510062003 18 130 1.6 4.8 0.00 0.00 0.00 76 1013.2
20260510061003 19 137 1.6 4.8 0.00 0.00 0.00 78 1013.1
20260510060003 19 135 1.6 4.8 0.00 0.00 0.00 76 1013.2
20260510055003 20 142 3.2 11.3 0.00 0.00 0.00 73 1013.4
20260510054003 20 133 4.8 11.3 0.00 0.00 0.00 73 1013.4
20260510053003 20 136 4.8 14.5 0.00 0.00 0.00 71 1013.2
20260510052004 20 128 9.7 22.5 0.00 0.00 0.00 71 1013.2
20260510051003 19 127 8.0 14.5 0.00 0.00 0.00 74 1012.8
20260510050004 19 116 6.4 11.3 0.00 0.00 0.00 74 1012.8
20260510045003 19 119 6.4 12.9 0.00 0.00 0.00 73 1012.5
20260510044003 20 120 6.4 11.3 0.00 0.00 0.00 73 1012.6
20260510043218 20 116 6.4 11.3 0.00 0.00 0.00 73 1012.4
20260510042003 20 117 6.4 11.3 0.00 0.00 0.00 72 1012.4
20260510041003 20 117 4.8 9.7 0.00 0.00 0.00 71 1012.3
20260510040003 20 114 6.4 11.3 0.00 0.00 0.00 71 1012.3
20260510035003 20 116 4.8 9.7 0.00 0.00 0.00 70 1012.4
20260510034003 20 118 6.4 11.3 0.00 0.00 0.00 70 1012.4
20260510033003 20 118 6.4 11.3 0.00 0.00 0.00 68 1012.3
20260510032004 20 117 6.4 11.3 0.00 0.00 0.00 67 1012.4
20260510031003 21 119 8.0 12.9 0.00 0.00 0.00 66 1012.1
20260510030004 21 124 8.0 14.5 0.00 0.00 0.00 64 1012.1
20260510025218 21 127 9.7 14.5 0.00 0.00 0.00 63 1012.0
20260510024003 21 133 8.0 12.9 0.00 0.00 0.00 62 1011.9
20260510023218 22 132 6.4 11.3 0.00 0.00 0.00 61 1011.8
20260510022003 22 130 9.7 16.1 0.00 0.00 0.00 60 1011.6
20260510021003 22 126 9.7 16.1 0.00 0.00 0.00 59 1011.5
20260510020004 22 128 9.7 14.5 0.00 0.00 0.00 59 1011.4
20260510015003 22 127 8.0 12.9 0.00 0.00 0.00 59 1011.4
20260510014217 22 125 8.0 12.9 0.00 0.00 0.00 59 1011.1
20260510013003 22 127 9.7 16.1 0.00 0.00 0.00 59 1011.3
20260510012003 23 132 6.4 12.9 0.00 0.00 0.00 59 1011.5
20260510011003 23 129 8.0 12.9 0.00 0.00 0.00 58 1011.4
20260510010003 23 137 6.4 12.9 0.00 0.00 0.00 57 1011.0
20260510005003 24 136 6.4 12.9 0.00 0.00 0.00 55 1011.0
20260510004003 25 134 6.4 14.5 0.00 0.00 0.00 54 1010.9
20260510003003 25 131 8.0 14.5 0.00 0.00 0.00 53 1010.6
20260510002003 26 139 6.4 14.5 0.00 0.00 0.00 51 1010.4
20260510001003 26 138 6.4 14.5 0.00 0.00 0.00 49 1010.5
20260510000003 26 134 6.4 12.9 0.00 0.00 0.00 48 1010.2
20260509235003 26 142 4.8 14.5 0.00 0.00 0.00 48 1010.4
20260509234003 27 139 4.8 12.9 0.00 0.00 0.00 48 1010.6
20260509233003 27 136 8.0 16.1 0.00 0.00 0.00 47 1010.4
20260509232003 27 139 4.8 12.9 0.00 0.00 0.00 48 1010.5
20260509231003 27 158 3.2 9.7 0.00 0.00 0.00 48 1010.3
20260509230003 27 139 6.4 17.7 0.00 0.00 0.00 49 1010.3
20260509225003 27 132 6.4 14.5 0.00 0.00 0.00 49 1010.1
20260509224004 27 132 9.7 20.9 0.00 0.00 0.00 48 1009.9
20260509223003 27 137 8.0 17.7 0.00 0.00 0.00 49 1010.1
20260509222004 28 145 4.8 12.9 0.00 0.00 0.00 47 1010.0
20260509221003 28 145 4.8 14.5 0.00 0.00 0.00 45 1009.8
20260509220003 28 124 4.8 12.9 0.00 0.00 0.00 41 1009.8
20260509215003 29 360 4.8 14.5 0.00 0.00 0.00 36 1009.9
20260509214003 30 219 1.6 4.8 0.00 0.00 0.00 34 1009.6
20260509213003 30 108 1.6 6.4 0.00 0.00 0.00 34 1009.7
20260509212217 29 36 4.8 16.1 0.00 0.00 0.00 33 1009.9
20260509211217 29 359 3.2 11.3 0.00 0.00 0.00 34 1010.1
20260509210003 29 38 6.4 14.5 0.00 0.00 0.00 34 1010.4
20260509205003 29 65 3.2 14.5 0.00 0.00 0.00 33 1010.4
20260509204003 29 74 6.4 17.7 0.00 0.00 0.00 32 1010.7
20260509203217 29 56 4.8 16.1 0.00 0.00 0.00 34 1010.6
20260509202217 29 84 3.2 11.3 0.00 0.00 0.00 34 1010.7
20260509201003 29 86 8.0 20.9 0.00 0.00 0.00 32 1011.1
20260509200003 29 38 3.2 11.3 0.00 0.00 0.00 39 1010.9
20260509195003 28 98 4.8 11.3 0.00 0.00 0.00 39 1010.9
20260509194003 28 129 4.8 12.9 0.00 0.00 0.00 37 1010.7
20260509193003 28 342 6.4 14.5 0.00 0.00 0.00 42 1010.9
20260509192003 28 6 9.7 16.1 0.00 0.00 0.00 41 1010.9
20260509191003 28 7 6.4 17.7 0.00 0.00 0.00 42 1011.0
20260509190003 28 18 6.4 14.5 0.00 0.00 0.00 44 1010.9
20260509185217 28 20 6.4 16.1 0.00 0.00 0.00 45 1011.1
20260509184216 28 101 4.8 14.5 0.00 0.00 0.00 47 1011.2
20260509183003 28 174 3.2 11.3 0.00 0.00 0.00 46 1011.1
20260509182003 27 141 6.4 12.9 0.00 0.00 0.00 50 1011.4
20260509181003 27 140 3.2 14.5 0.00 0.00 0.00 48 1011.5
20260509180003 27 126 6.4 16.1 0.00 0.00 0.00 51 1011.7
20260509175218 27 117 6.4 16.1 0.00 0.00 0.00 51 1011.8
20260509174003 27 19 6.4 17.7 0.00 0.00 0.00 52 1011.7
20260509173003 26 97 6.4 14.5 0.00 0.00 0.00 57 1011.9
20260509172003 27 50 4.8 14.5 0.00 0.00 0.00 52 1011.7
20260509171218 27 337 3.2 9.7 0.00 0.00 0.00 59 1011.7
20260509170218 26 64 3.2 9.7 0.00 0.00 0.00 60 1011.6
20260509165003 26 356 6.4 16.1 0.00 0.00 0.00 60 1011.6
20260509164003 26 337 6.4 12.9 0.00 0.00 0.00 62 1011.6
20260509163003 26 341 3.2 12.9 0.00 0.00 0.00 66 1011.6
20260509162003 25 109 1.6 4.8 0.00 0.00 0.00 67 1011.7
20260509161003 25 27 1.6 9.7 0.00 0.00 0.00 69 1011.8
20260509160003 24 7 4.8 9.7 0.00 0.00 0.00 71 1011.8
20260509155003 24 306 4.8 12.9 0.00 0.00 0.00 70 1011.6
20260509154218 23 333 3.2 11.3 0.00 0.00 0.00 74 1011.7
20260509153003 23 301 3.2 11.3 0.00 0.00 0.00 74 1011.6
20260509152003 23 285 3.2 11.3 0.00 0.00 0.00 77 1011.5
20260509151003 22 31 1.6 6.4 0.00 0.00 0.00 80 1011.8
20260509150003 21 249 3.2 9.7 0.00 0.00 0.00 81 1011.7
20260509145003 21 291 3.2 6.4 0.00 0.00 0.00 82 1012.1
20260509144003 20 224 3.2 6.4 0.00 0.00 0.00 84 1012.0
20260509143217 20 236 1.6 6.4 0.00 0.00 0.00 84 1011.8
20260509142003 20 265 1.6 6.4 0.00 0.00 0.00 86 1012.0
20260509141217 19 207 1.6 6.4 0.00 0.00 0.00 88 1012.1
20260509140004 19 212 3.2 9.7 0.00 0.00 0.00 88 1012.3
20260509135217 19 196 4.8 9.7 0.00 0.00 0.00 90 1012.1
20260509134003 18 198 3.2 9.7 0.00 0.00 0.00 91 1012.2
20260509133004 18 199 3.2 6.4 0.00 0.00 0.00 90 1011.9
20260509132003 18 234 1.6 4.8 0.00 0.00 0.00 91 1011.8
20260509131003 18 213 0.0 3.2 0.00 0.00 0.00 93 1011.7
20260509130003 17 201 0.0 3.2 0.00 0.00 0.00 94 1011.6
20260509125003 16 198 1.6 3.2 0.00 0.00 0.00 96 1011.8
20260509124003 15 261 1.6 4.8 0.00 0.00 0.00 97 1011.7
20260509123218 15 266 0.0 4.8 0.00 0.00 0.00 97 1011.5
20260509122003 13 0 0.0 0.0 0.00 0.00 0.00 97 1011.4
20260509121003 13 0 0.0 0.0 0.00 0.00 0.00 97 1011.1
20260509120003 13 0 0.0 0.0 0.00 0.00 0.00 97 1010.9
20260509115003 12 0 0.0 0.0 0.00 0.00 0.00 97 1011.0
20260509114003 12 0 0.0 0.0 0.00 0.00 0.00 97 1010.7
20260509113004 12 0 0.0 0.0 0.00 0.00 0.00 96 1010.7
20260509112003 13 0 0.0 0.0 0.00 0.00 0.00 96 1010.4
20260509111003 13 311 0.0 1.6 0.00 0.00 0.00 96 1010.4
20260509110003 13 209 0.0 3.2 0.00 0.00 0.00 96 1010.2
20260509105003 13 222 3.2 4.8 0.00 0.00 0.00 96 1010.2
20260509104003 13 264 0.0 1.6 0.00 0.00 0.00 96 1010.1
20260509103003 13 344 1.6 3.2 0.00 0.00 0.00 96 1010.0
20260509102003 13 19 3.2 6.4 0.00 0.00 0.00 97 1010.1
20260509101218 13 35 3.2 6.4 0.00 0.00 0.00 96 1010.1
20260509100004 13 55 0.0 1.6 0.00 0.00 0.00 96 1010.1
20260509095003 13 71 0.0 1.6 0.00 0.00 0.00 95 1010.0
20260509094004 13 1 0.0 1.6 0.00 0.00 0.00 95 1009.9
20260509093217 13 8 3.2 4.8 0.00 0.00 0.00 95 1009.9
20260509092003 13 28 1.6 3.2 0.00 0.00 0.00 95 1009.9
20260509091003 13 36 0.0 3.2 0.00 0.00 0.00 95 1010.0
20260509090003 13 32 1.6 3.2 0.00 0.00 0.00 95 1010.2
20260509085003 13 19 1.6 3.2 0.00 0.00 0.00 94 1010.3
20260509084003 14 6 1.6 3.2 0.00 0.00 0.00 94 1010.2
20260509083003 14 13 1.6 4.8 0.00 0.00 0.00 94 1010.4
20260509082003 15 356 1.6 6.4 0.00 0.00 0.00 94 1010.4
20260509081004 15 357 3.2 4.8 0.00 0.00 0.00 94 1010.7
20260509080004 15 352 4.8 6.4 0.00 0.00 0.00 95 1011.0
20260509075003 15 337 4.8 6.4 0.00 0.00 0.00 93 1010.5
20260509074003 15 289 3.2 4.8 0.00 0.00 0.00 93 1010.5
20260509073003 15 294 3.2 6.4 0.00 0.00 0.00 94 1010.3